Year,Month,Day,Hour,Minute,Value (Times are PST for temperature in C)
2015,06,26,00,00,15.10
2015,06,26,00,01,15.10
2015,06,26,00,02,15.10
2015,06,26,00,03,15.10
2015,06,26,00,04,15.10
2015,06,26,00,05,15.10
2015,06,26,00,06,15.10
2015,06,26,00,07,15.10
2015,06,26,00,08,15.10
2015,06,26,00,09,15.10
2015,06,26,00,10,15.10
2015,06,26,00,11,15.10
2015,06,26,00,12,15.10
2015,06,26,00,13,15.10
2015,06,26,00,14,15.10
2015,06,26,00,15,15.10
2015,06,26,00,16,15.10
2015,06,26,00,17,15.10
2015,06,26,00,18,15.10
2015,06,26,00,19,15.10
2015,06,26,00,20,15.10
2015,06,26,00,21,15.10
2015,06,26,00,22,15.10
2015,06,26,00,23,15.10
2015,06,26,00,24,15.10
2015,06,26,00,25,15.00
2015,06,26,00,26,15.00
2015,06,26,00,27,15.00
2015,06,26,00,28,15.00
2015,06,26,00,29,15.00
2015,06,26,00,30,15.00
2015,06,26,00,31,15.00
2015,06,26,00,32,15.00
2015,06,26,00,33,15.00
2015,06,26,00,34,15.00
2015,06,26,00,35,15.00
2015,06,26,00,36,15.00
2015,06,26,00,37,15.00
2015,06,26,00,38,15.00
2015,06,26,00,39,15.00
2015,06,26,00,40,15.00
2015,06,26,00,41,15.00
2015,06,26,00,42,15.00
2015,06,26,00,43,15.00
2015,06,26,00,44,15.00
2015,06,26,00,45,15.00
2015,06,26,00,46,15.00
2015,06,26,00,47,15.00
2015,06,26,00,48,15.00
2015,06,26,00,49,15.00
2015,06,26,00,50,15.00
2015,06,26,00,51,15.00
2015,06,26,00,52,15.00
2015,06,26,00,53,15.00
2015,06,26,00,54,15.00
2015,06,26,00,55,15.00
2015,06,26,00,56,15.00
2015,06,26,00,57,15.00
2015,06,26,00,58,15.00
2015,06,26,00,59,15.00
2015,06,26,01,00,15.00
2015,06,26,01,01,15.00
2015,06,26,01,02,15.00
2015,06,26,01,03,15.00
2015,06,26,01,04,15.00
2015,06,26,01,05,15.00
2015,06,26,01,06,15.00
2015,06,26,01,07,15.00
2015,06,26,01,08,15.00
2015,06,26,01,09,15.00
2015,06,26,01,10,15.00
2015,06,26,01,11,15.00
2015,06,26,01,12,15.00
2015,06,26,01,13,15.00
2015,06,26,01,14,15.00
2015,06,26,01,15,15.00
2015,06,26,01,16,15.00
2015,06,26,01,17,15.00
2015,06,26,01,18,15.00
2015,06,26,01,19,15.00
2015,06,26,01,20,15.00
2015,06,26,01,21,15.00
2015,06,26,01,22,15.00
2015,06,26,01,23,15.00
2015,06,26,01,24,15.00
2015,06,26,01,25,15.00
2015,06,26,01,26,15.00
2015,06,26,01,27,15.00
2015,06,26,01,28,15.00
2015,06,26,01,29,15.00
2015,06,26,01,30,15.00
2015,06,26,01,31,14.90
2015,06,26,01,32,14.90
2015,06,26,01,33,14.90
2015,06,26,01,34,14.90
2015,06,26,01,35,14.90
2015,06,26,01,36,14.90
2015,06,26,01,37,14.90
2015,06,26,01,38,14.90
2015,06,26,01,39,14.90
2015,06,26,01,40,14.90
2015,06,26,01,41,14.90
2015,06,26,01,42,14.90
2015,06,26,01,43,14.90
2015,06,26,01,44,14.90
2015,06,26,01,45,14.90
2015,06,26,01,46,14.90
2015,06,26,01,47,14.90
2015,06,26,01,48,14.90
2015,06,26,01,49,14.90
2015,06,26,01,50,14.90
2015,06,26,01,51,14.90
2015,06,26,01,52,14.90
2015,06,26,01,53,14.90
2015,06,26,01,54,14.90
2015,06,26,01,55,14.90
2015,06,26,01,56,14.90
2015,06,26,01,57,14.90
2015,06,26,01,58,14.90
2015,06,26,01,59,14.90
2015,06,26,02,00,14.90
2015,06,26,02,01,14.90
2015,06,26,02,02,14.90
2015,06,26,02,03,14.90
2015,06,26,02,04,14.90
2015,06,26,02,05,14.90
2015,06,26,02,06,14.90
2015,06,26,02,07,14.80
2015,06,26,02,08,14.80
2015,06,26,02,09,14.80
2015,06,26,02,10,14.80
2015,06,26,02,11,14.80
2015,06,26,02,12,14.80
2015,06,26,02,13,14.80
2015,06,26,02,14,14.80
2015,06,26,02,15,14.80
2015,06,26,02,16,14.80
2015,06,26,02,17,14.80
2015,06,26,02,18,14.80
2015,06,26,02,19,14.80
2015,06,26,02,20,14.80
2015,06,26,02,21,14.80
2015,06,26,02,22,14.70
2015,06,26,02,23,14.70
2015,06,26,02,24,14.70
2015,06,26,02,25,14.70
2015,06,26,02,26,14.70
2015,06,26,02,27,14.70
2015,06,26,02,28,14.70
2015,06,26,02,29,14.70
2015,06,26,02,30,14.70
2015,06,26,02,31,14.70
2015,06,26,02,32,14.70
2015,06,26,02,33,14.60
2015,06,26,02,34,14.60
2015,06,26,02,35,14.60
2015,06,26,02,36,14.60
2015,06,26,02,37,14.60
2015,06,26,02,38,14.60
2015,06,26,02,39,14.60
2015,06,26,02,40,14.60
2015,06,26,02,41,14.60
2015,06,26,02,42,14.60
2015,06,26,02,43,14.60
2015,06,26,02,44,14.60
2015,06,26,02,45,14.60
2015,06,26,02,46,14.60
2015,06,26,02,47,14.60
2015,06,26,02,48,14.60
2015,06,26,02,49,14.60
2015,06,26,02,50,14.60
2015,06,26,02,51,14.60
2015,06,26,02,52,14.60
2015,06,26,02,53,14.60
2015,06,26,02,54,14.60
2015,06,26,02,55,14.60
2015,06,26,02,56,14.60
2015,06,26,02,57,14.60
2015,06,26,02,58,14.60
2015,06,26,02,59,14.60
2015,06,26,03,00,14.60
2015,06,26,03,01,14.60
2015,06,26,03,02,14.60
2015,06,26,03,03,14.60
2015,06,26,03,04,14.60
2015,06,26,03,05,14.60
2015,06,26,03,06,14.60
2015,06,26,03,07,14.60
2015,06,26,03,08,14.60
2015,06,26,03,09,14.60
2015,06,26,03,10,14.60
2015,06,26,03,11,14.60
2015,06,26,03,12,14.60
2015,06,26,03,13,14.60
2015,06,26,03,14,14.60
2015,06,26,03,15,14.60
2015,06,26,03,16,14.60
2015,06,26,03,17,14.60
2015,06,26,03,18,14.60
2015,06,26,03,19,14.60
2015,06,26,03,20,14.60
2015,06,26,03,21,14.60
2015,06,26,03,22,14.60
2015,06,26,03,23,14.60
2015,06,26,03,24,14.60
2015,06,26,03,25,14.60
2015,06,26,03,26,14.60
2015,06,26,03,27,14.60
2015,06,26,03,28,14.60
2015,06,26,03,29,14.60
2015,06,26,03,30,14.60
2015,06,26,03,31,14.60
2015,06,26,03,32,14.60
2015,06,26,03,33,14.60
2015,06,26,03,34,14.60
2015,06,26,03,35,14.60
2015,06,26,03,36,14.60
2015,06,26,03,37,14.60
2015,06,26,03,38,14.60
2015,06,26,03,39,14.60
2015,06,26,03,40,14.60
2015,06,26,03,41,14.60
2015,06,26,03,42,14.60
2015,06,26,03,43,14.60
2015,06,26,03,44,14.60
2015,06,26,03,45,14.70
2015,06,26,03,46,14.70
2015,06,26,03,47,14.70
2015,06,26,03,48,14.70
2015,06,26,03,49,14.70
2015,06,26,03,50,14.70
2015,06,26,03,51,14.70
2015,06,26,03,52,14.70
2015,06,26,03,53,14.70
2015,06,26,03,54,14.70
2015,06,26,03,55,14.70
2015,06,26,03,56,14.70
2015,06,26,03,57,14.70
2015,06,26,03,58,14.70
2015,06,26,03,59,14.70
2015,06,26,04,00,14.70
2015,06,26,04,01,14.70
2015,06,26,04,02,14.70
2015,06,26,04,03,14.70
2015,06,26,04,04,14.70
2015,06,26,04,05,14.70
2015,06,26,04,06,14.70
2015,06,26,04,07,14.70
2015,06,26,04,08,14.70
2015,06,26,04,09,14.70
2015,06,26,04,10,14.70
2015,06,26,04,11,14.70
2015,06,26,04,12,14.70
2015,06,26,04,13,14.70
2015,06,26,04,14,14.70
2015,06,26,04,15,14.70
2015,06,26,04,16,14.70
2015,06,26,04,17,14.70
2015,06,26,04,18,14.70
2015,06,26,04,19,14.70
2015,06,26,04,20,14.70
2015,06,26,04,21,14.70
2015,06,26,04,22,14.60
2015,06,26,04,23,14.60
2015,06,26,04,24,14.60
2015,06,26,04,25,14.60
2015,06,26,04,26,14.60
2015,06,26,04,27,14.60
2015,06,26,04,28,14.60
2015,06,26,04,29,14.60
2015,06,26,04,30,14.60
2015,06,26,04,31,14.60
2015,06,26,04,32,14.60
2015,06,26,04,33,14.50
2015,06,26,04,34,14.50
2015,06,26,04,35,14.50
2015,06,26,04,36,14.50
2015,06,26,04,37,14.40
2015,06,26,04,38,14.40
2015,06,26,04,39,14.40
2015,06,26,04,40,14.40
2015,06,26,04,41,14.40
2015,06,26,04,42,14.40
2015,06,26,04,43,14.40
2015,06,26,04,44,14.40
2015,06,26,04,45,14.40
2015,06,26,04,46,14.40
2015,06,26,04,47,14.40
2015,06,26,04,48,14.30
2015,06,26,04,49,14.30
2015,06,26,04,50,14.30
2015,06,26,04,51,14.30
2015,06,26,04,52,14.30
2015,06,26,04,53,14.30
2015,06,26,04,54,14.30
2015,06,26,04,55,14.30
2015,06,26,04,56,14.30
2015,06,26,04,57,14.30
2015,06,26,04,58,14.30
2015,06,26,04,59,14.20
2015,06,26,05,00,14.20
2015,06,26,05,01,14.20
2015,06,26,05,02,14.20
2015,06,26,05,03,14.20
2015,06,26,05,04,14.20
2015,06,26,05,05,14.20
2015,06,26,05,06,14.20
2015,06,26,05,07,14.20
2015,06,26,05,08,14.20
2015,06,26,05,09,14.20
2015,06,26,05,10,14.20
2015,06,26,05,11,14.20
2015,06,26,05,12,14.20
2015,06,26,05,13,14.20
2015,06,26,05,14,14.10
2015,06,26,05,15,14.10
2015,06,26,05,16,14.10
2015,06,26,05,17,14.10
2015,06,26,05,18,14.10
2015,06,26,05,19,14.10
2015,06,26,05,20,14.10
2015,06,26,05,21,14.10
2015,06,26,05,22,14.10
2015,06,26,05,23,14.10
2015,06,26,05,24,14.10
2015,06,26,05,25,14.10
2015,06,26,05,26,14.10
2015,06,26,05,27,14.10
2015,06,26,05,28,14.10
2015,06,26,05,29,14.10
2015,06,26,05,30,14.10
2015,06,26,05,31,14.10
2015,06,26,05,32,14.10
2015,06,26,05,33,14.10
2015,06,26,05,34,14.10
2015,06,26,05,35,14.10
2015,06,26,05,36,14.10
2015,06,26,05,37,14.10
2015,06,26,05,38,14.10
2015,06,26,05,39,14.10
2015,06,26,05,40,14.10
2015,06,26,05,41,14.10
2015,06,26,05,42,14.10
2015,06,26,05,43,14.10
2015,06,26,05,44,14.10
2015,06,26,05,45,14.10
2015,06,26,05,46,14.10
2015,06,26,05,47,14.10
2015,06,26,05,48,14.10
2015,06,26,05,49,14.10
2015,06,26,05,50,14.10
2015,06,26,05,51,14.10
2015,06,26,05,52,14.10
2015,06,26,05,53,14.10
2015,06,26,05,54,14.10
2015,06,26,05,55,14.10
2015,06,26,05,56,14.10
2015,06,26,05,57,14.10
2015,06,26,05,58,14.10
2015,06,26,05,59,14.10
2015,06,26,06,00,14.10
2015,06,26,06,01,14.00
2015,06,26,06,02,14.00
2015,06,26,06,03,14.00
2015,06,26,06,04,14.00
2015,06,26,06,05,13.90
2015,06,26,06,06,13.90
2015,06,26,06,07,13.90
2015,06,26,06,08,13.90
2015,06,26,06,09,13.90
2015,06,26,06,10,13.90
2015,06,26,06,11,13.80
2015,06,26,06,12,13.80
2015,06,26,06,13,13.80
2015,06,26,06,14,13.80
2015,06,26,06,15,13.80
2015,06,26,06,16,13.80
2015,06,26,06,17,13.80
2015,06,26,06,18,13.80
2015,06,26,06,19,13.80
2015,06,26,06,20,13.80
2015,06,26,06,21,13.70
2015,06,26,06,22,13.70
2015,06,26,06,23,13.70
2015,06,26,06,24,13.70
2015,06,26,06,25,13.70
2015,06,26,06,26,13.60
2015,06,26,06,27,13.60
2015,06,26,06,28,13.60
2015,06,26,06,29,13.60
2015,06,26,06,30,13.60
2015,06,26,06,31,13.60
2015,06,26,06,32,13.60
2015,06,26,06,33,13.60
2015,06,26,06,34,13.60
2015,06,26,06,35,13.60
2015,06,26,06,36,13.50
2015,06,26,06,37,13.50
2015,06,26,06,38,13.50
2015,06,26,06,39,13.50
2015,06,26,06,40,13.50
2015,06,26,06,41,13.50
2015,06,26,06,42,13.50
2015,06,26,06,43,13.40
2015,06,26,06,44,13.40
2015,06,26,06,45,13.40
2015,06,26,06,46,13.40
2015,06,26,06,47,13.40
2015,06,26,06,48,13.40
2015,06,26,06,49,13.40
2015,06,26,06,50,13.40
2015,06,26,06,51,13.40
2015,06,26,06,52,13.40
2015,06,26,06,53,13.40
2015,06,26,06,54,13.40
2015,06,26,06,55,13.40
2015,06,26,06,56,13.40
2015,06,26,06,57,13.40
2015,06,26,06,58,13.40
2015,06,26,06,59,13.40
2015,06,26,07,00,13.40
2015,06,26,07,01,13.40
2015,06,26,07,02,13.40
2015,06,26,07,03,13.40
2015,06,26,07,04,13.30
2015,06,26,07,05,13.30
2015,06,26,07,06,13.30
2015,06,26,07,07,13.30
2015,06,26,07,08,13.30
2015,06,26,07,09,13.30
2015,06,26,07,10,13.30
2015,06,26,07,11,13.30
2015,06,26,07,12,13.30
2015,06,26,07,13,13.30
2015,06,26,07,14,13.30
2015,06,26,07,15,13.30
2015,06,26,07,16,13.30
2015,06,26,07,17,13.30
2015,06,26,07,18,13.30
2015,06,26,07,19,13.30
2015,06,26,07,20,13.30
2015,06,26,07,21,13.30
2015,06,26,07,22,13.30
2015,06,26,07,23,13.30
2015,06,26,07,24,13.30
2015,06,26,07,25,13.30
2015,06,26,07,26,13.30
2015,06,26,07,27,13.30
2015,06,26,07,28,13.30
2015,06,26,07,29,13.30
2015,06,26,07,30,13.30
2015,06,26,07,31,13.30
2015,06,26,07,32,13.30
2015,06,26,07,33,13.30
2015,06,26,07,34,13.30
2015,06,26,07,35,13.30
2015,06,26,07,36,13.30
2015,06,26,07,37,13.30
2015,06,26,07,38,13.30
2015,06,26,07,39,13.30
2015,06,26,07,40,13.30
2015,06,26,07,41,13.30
2015,06,26,07,42,13.30
2015,06,26,07,43,13.30
2015,06,26,07,44,13.40
2015,06,26,07,45,13.40
2015,06,26,07,46,13.40
2015,06,26,07,47,13.40
2015,06,26,07,48,13.40
2015,06,26,07,49,13.40
2015,06,26,07,50,13.40
2015,06,26,07,51,13.40
2015,06,26,07,52,13.40
2015,06,26,07,53,13.40
2015,06,26,07,54,13.40
2015,06,26,07,55,13.40
2015,06,26,07,56,13.40
2015,06,26,07,57,13.40
2015,06,26,07,58,13.40
2015,06,26,07,59,13.40
2015,06,26,08,00,13.40
2015,06,26,08,01,13.40
2015,06,26,08,02,13.40
2015,06,26,08,03,13.40
2015,06,26,08,04,13.40
2015,06,26,08,05,13.30
2015,06,26,08,06,13.40
2015,06,26,08,07,13.40
2015,06,26,08,08,13.40
2015,06,26,08,09,13.40
2015,06,26,08,10,13.40
2015,06,26,08,11,13.40
2015,06,26,08,12,13.40
2015,06,26,08,13,13.40
2015,06,26,08,14,13.40
2015,06,26,08,15,13.40
2015,06,26,08,16,13.40
2015,06,26,08,17,13.40
2015,06,26,08,18,13.50
2015,06,26,08,19,13.50
2015,06,26,08,20,13.50
2015,06,26,08,21,13.60
2015,06,26,08,22,13.60
2015,06,26,08,23,13.60
2015,06,26,08,24,13.60
2015,06,26,08,25,13.60
2015,06,26,08,26,13.60
2015,06,26,08,27,13.60
2015,06,26,08,28,13.60
2015,06,26,08,29,13.70
2015,06,26,08,30,13.70
2015,06,26,08,31,13.70
2015,06,26,08,32,13.70
2015,06,26,08,33,13.70
2015,06,26,08,34,13.70
2015,06,26,08,35,13.70
2015,06,26,08,36,13.70
2015,06,26,08,37,13.70
2015,06,26,08,38,13.70
2015,06,26,08,39,13.70
2015,06,26,08,40,13.80
2015,06,26,08,41,13.80
2015,06,26,08,42,13.80
2015,06,26,08,43,13.90
2015,06,26,08,44,13.90
2015,06,26,08,45,13.90
2015,06,26,08,46,14.00
2015,06,26,08,47,14.00
2015,06,26,08,48,14.00
2015,06,26,08,49,14.10
2015,06,26,08,50,14.10
2015,06,26,08,51,14.10
2015,06,26,08,52,14.10
2015,06,26,08,53,14.10
2015,06,26,08,54,14.20
2015,06,26,08,55,14.20
2015,06,26,08,56,14.20
2015,06,26,08,57,14.20
2015,06,26,08,58,14.20
2015,06,26,08,59,14.20
2015,06,26,09,00,14.20
2015,06,26,09,01,14.20
2015,06,26,09,02,14.20
2015,06,26,09,03,14.20
2015,06,26,09,04,14.30
2015,06,26,09,05,14.30
2015,06,26,09,06,14.30
2015,06,26,09,07,14.40
2015,06,26,09,08,14.40
2015,06,26,09,09,14.40
2015,06,26,09,10,14.50
2015,06,26,09,11,14.50
2015,06,26,09,12,14.60
2015,06,26,09,13,14.60
2015,06,26,09,14,14.60
2015,06,26,09,15,14.60
2015,06,26,09,16,14.60
2015,06,26,09,17,14.70
2015,06,26,09,18,14.70
2015,06,26,09,19,14.70
2015,06,26,09,20,14.70
2015,06,26,09,21,14.80
2015,06,26,09,22,14.80
2015,06,26,09,23,14.80
2015,06,26,09,24,14.80
2015,06,26,09,25,14.80
2015,06,26,09,26,14.80
2015,06,26,09,27,14.80
2015,06,26,09,28,14.80
2015,06,26,09,29,14.80
2015,06,26,09,30,14.90
2015,06,26,09,31,14.90
2015,06,26,09,32,14.90
2015,06,26,09,33,14.90
2015,06,26,09,34,14.90
2015,06,26,09,35,15.00
2015,06,26,09,36,15.00
2015,06,26,09,37,15.00
2015,06,26,09,38,15.10
2015,06,26,09,39,15.10
2015,06,26,09,40,15.10
2015,06,26,09,41,15.10
2015,06,26,09,42,15.10
2015,06,26,09,43,15.10
2015,06,26,09,44,15.10
2015,06,26,09,45,15.20
2015,06,26,09,46,15.20
2015,06,26,09,47,15.20
2015,06,26,09,48,15.20
2015,06,26,09,49,15.30
2015,06,26,09,50,15.30
2015,06,26,09,51,15.40
2015,06,26,09,52,15.40
2015,06,26,09,53,15.50
2015,06,26,09,54,15.50
2015,06,26,09,55,15.60
2015,06,26,09,56,15.60
2015,06,26,09,57,15.60
2015,06,26,09,58,15.70
2015,06,26,09,59,15.70
2015,06,26,10,00,15.70
2015,06,26,10,01,15.80
2015,06,26,10,02,15.80
2015,06,26,10,03,15.80
2015,06,26,10,04,15.80
2015,06,26,10,05,15.90
2015,06,26,10,06,15.90
2015,06,26,10,07,16.00
2015,06,26,10,08,16.00
2015,06,26,10,09,16.10
2015,06,26,10,10,16.10
2015,06,26,10,11,16.10
2015,06,26,10,12,16.20
2015,06,26,10,13,16.20
2015,06,26,10,14,16.20
2015,06,26,10,15,16.20
2015,06,26,10,16,16.20
2015,06,26,10,17,16.30
2015,06,26,10,18,16.30
2015,06,26,10,19,16.30
2015,06,26,10,20,16.30
2015,06,26,10,21,16.40
2015,06,26,10,22,16.40
2015,06,26,10,23,16.40
2015,06,26,10,24,16.40
2015,06,26,10,25,16.50
2015,06,26,10,26,16.60
2015,06,26,10,27,16.60
2015,06,26,10,28,16.60
2015,06,26,10,29,16.70
2015,06,26,10,30,16.70
2015,06,26,10,31,16.80
2015,06,26,10,32,16.80
2015,06,26,10,33,16.90
2015,06,26,10,34,16.90
2015,06,26,10,35,17.00
2015,06,26,10,36,17.00
2015,06,26,10,37,17.10
2015,06,26,10,38,17.20
2015,06,26,10,39,17.20
2015,06,26,10,40,17.30
2015,06,26,10,41,17.30
2015,06,26,10,42,17.40
2015,06,26,10,43,17.40
2015,06,26,10,44,17.50
2015,06,26,10,45,17.60
2015,06,26,10,46,17.70
2015,06,26,10,47,17.80
2015,06,26,10,48,17.80
2015,06,26,10,49,17.90
2015,06,26,10,50,17.90
2015,06,26,10,51,17.90
2015,06,26,10,52,18.00
2015,06,26,10,53,18.00
2015,06,26,10,54,18.10
2015,06,26,10,55,18.20
2015,06,26,10,56,18.20
2015,06,26,10,57,18.30
2015,06,26,10,58,18.30
2015,06,26,10,59,18.40
2015,06,26,11,00,18.50
2015,06,26,11,01,18.60
2015,06,26,11,02,18.60
2015,06,26,11,03,18.80
2015,06,26,11,04,18.80
2015,06,26,11,05,18.90
2015,06,26,11,06,19.00
2015,06,26,11,07,19.10
2015,06,26,11,08,19.20
2015,06,26,11,09,19.20
2015,06,26,11,10,19.30
2015,06,26,11,11,19.30
2015,06,26,11,12,19.30
2015,06,26,11,13,19.40
2015,06,26,11,14,19.40
2015,06,26,11,15,19.50
2015,06,26,11,16,19.50
2015,06,26,11,17,19.60
2015,06,26,11,18,19.70
2015,06,26,11,19,19.70
2015,06,26,11,20,19.80
2015,06,26,11,21,19.80
2015,06,26,11,22,19.80
2015,06,26,11,23,19.80
2015,06,26,11,24,19.90
2015,06,26,11,25,19.90
2015,06,26,11,26,20.00
2015,06,26,11,27,20.00
2015,06,26,11,28,20.10
2015,06,26,11,29,20.10
2015,06,26,11,30,20.20
2015,06,26,11,31,20.30
2015,06,26,11,32,20.30
2015,06,26,11,33,20.30
2015,06,26,11,34,20.40
2015,06,26,11,35,20.40
2015,06,26,11,36,20.50
2015,06,26,11,37,20.60
2015,06,26,11,38,20.70
2015,06,26,11,39,20.70
2015,06,26,11,40,20.70
2015,06,26,11,41,20.70
2015,06,26,11,42,20.70
2015,06,26,11,43,20.70
2015,06,26,11,44,20.80
2015,06,26,11,45,20.80
2015,06,26,11,46,20.80
2015,06,26,11,47,20.80
2015,06,26,11,48,20.80
2015,06,26,11,49,20.80
2015,06,26,11,50,20.80
2015,06,26,11,51,20.90
2015,06,26,11,52,21.00
2015,06,26,11,53,21.00
2015,06,26,11,54,21.10
2015,06,26,11,55,21.20
2015,06,26,11,56,21.30
2015,06,26,11,57,21.30
2015,06,26,11,58,21.40
2015,06,26,11,59,21.50
2015,06,26,12,00,21.60
2015,06,26,12,01,21.70
2015,06,26,12,02,21.80
2015,06,26,12,03,21.80
2015,06,26,12,04,21.80
2015,06,26,12,05,21.70
2015,06,26,12,06,21.70
2015,06,26,12,07,21.80
2015,06,26,12,08,21.80
2015,06,26,12,09,21.80
2015,06,26,12,10,21.80
2015,06,26,12,11,21.90
2015,06,26,12,12,22.00
2015,06,26,12,13,22.10
2015,06,26,12,14,22.10
2015,06,26,12,15,22.20
2015,06,26,12,16,22.20
2015,06,26,12,17,22.30
2015,06,26,12,18,22.40
2015,06,26,12,19,22.40
2015,06,26,12,20,22.40
2015,06,26,12,21,22.30
2015,06,26,12,22,22.20
2015,06,26,12,23,22.20
2015,06,26,12,24,22.20
2015,06,26,12,25,22.30
2015,06,26,12,26,22.30
2015,06,26,12,27,22.40
2015,06,26,12,28,22.50
2015,06,26,12,29,22.60
2015,06,26,12,30,22.70
2015,06,26,12,31,22.70
2015,06,26,12,32,22.80
2015,06,26,12,33,22.80
2015,06,26,12,34,22.80
2015,06,26,12,35,22.80
2015,06,26,12,36,22.80
2015,06,26,12,37,22.80
2015,06,26,12,38,22.90
2015,06,26,12,39,22.90
2015,06,26,12,40,22.90
2015,06,26,12,41,23.00
2015,06,26,12,42,23.00
2015,06,26,12,43,23.10
2015,06,26,12,44,23.10
2015,06,26,12,45,23.20
2015,06,26,12,46,23.30
2015,06,26,12,47,23.40
2015,06,26,12,48,23.50
2015,06,26,12,49,23.60
2015,06,26,12,50,23.70
2015,06,26,12,51,23.80
2015,06,26,12,52,23.80
2015,06,26,12,53,23.80
2015,06,26,12,54,23.80
2015,06,26,12,55,23.80
2015,06,26,12,56,23.80
2015,06,26,12,57,23.70
2015,06,26,12,58,23.60
2015,06,26,12,59,23.50
2015,06,26,13,00,23.30
2015,06,26,13,01,23.30
2015,06,26,13,02,23.30
2015,06,26,13,03,23.30
2015,06,26,13,04,23.30
2015,06,26,13,05,23.30
2015,06,26,13,06,23.30
2015,06,26,13,07,23.30
2015,06,26,13,08,23.30
2015,06,26,13,09,23.30
2015,06,26,13,10,23.30
2015,06,26,13,11,23.30
2015,06,26,13,12,23.30
2015,06,26,13,13,23.30
2015,06,26,13,14,23.30
2015,06,26,13,15,23.30
2015,06,26,13,16,23.30
2015,06,26,13,17,23.20
2015,06,26,13,18,23.20
2015,06,26,13,19,23.20
2015,06,26,13,20,23.20
2015,06,26,13,21,23.20
2015,06,26,13,22,23.20
2015,06,26,13,23,23.20
2015,06,26,13,24,23.20
2015,06,26,13,25,23.10
2015,06,26,13,26,23.00
2015,06,26,13,27,23.00
2015,06,26,13,28,23.00
2015,06,26,13,29,23.10
2015,06,26,13,30,23.00
2015,06,26,13,31,23.00
2015,06,26,13,32,22.90
2015,06,26,13,33,22.90
2015,06,26,13,34,22.90
2015,06,26,13,35,22.90
2015,06,26,13,36,22.90
2015,06,26,13,37,23.00
2015,06,26,13,38,23.00
2015,06,26,13,39,23.00
2015,06,26,13,40,23.00
2015,06,26,13,41,23.00
2015,06,26,13,42,23.00
2015,06,26,13,43,23.10
2015,06,26,13,44,23.10
2015,06,26,13,45,23.00
2015,06,26,13,46,23.00
2015,06,26,13,47,23.00
2015,06,26,13,48,23.00
2015,06,26,13,49,23.00
2015,06,26,13,50,23.10
2015,06,26,13,51,23.10
2015,06,26,13,52,23.10
2015,06,26,13,53,23.20
2015,06,26,13,54,23.20
2015,06,26,13,55,23.30
2015,06,26,13,56,23.40
2015,06,26,13,57,23.40
2015,06,26,13,58,23.50
2015,06,26,13,59,23.60
2015,06,26,14,00,23.70
2015,06,26,14,01,23.80
2015,06,26,14,02,23.90
2015,06,26,14,03,23.90
2015,06,26,14,04,23.90
2015,06,26,14,05,23.90
2015,06,26,14,06,23.80
2015,06,26,14,07,23.70
2015,06,26,14,08,23.70
2015,06,26,14,09,23.60
2015,06,26,14,10,23.70
2015,06,26,14,11,23.70
2015,06,26,14,12,23.80
2015,06,26,14,13,23.90
2015,06,26,14,14,23.90
2015,06,26,14,15,23.90
2015,06,26,14,16,23.90
2015,06,26,14,17,24.00
2015,06,26,14,18,24.00
2015,06,26,14,19,24.20
2015,06,26,14,20,24.30
2015,06,26,14,21,24.40
2015,06,26,14,22,24.40
2015,06,26,14,23,24.40
2015,06,26,14,24,24.50
2015,06,26,14,25,24.50
2015,06,26,14,26,24.60
2015,06,26,14,27,24.70
2015,06,26,14,28,24.80
2015,06,26,14,29,24.90
2015,06,26,14,30,24.90
2015,06,26,14,31,24.90
2015,06,26,14,32,24.80
2015,06,26,14,33,24.80
2015,06,26,14,34,24.80
2015,06,26,14,35,24.70
2015,06,26,14,36,24.80
2015,06,26,14,37,24.80
2015,06,26,14,38,24.80
2015,06,26,14,39,24.80
2015,06,26,14,40,24.80
2015,06,26,14,41,24.80
2015,06,26,14,42,24.80
2015,06,26,14,43,24.70
2015,06,26,14,44,24.70
2015,06,26,14,45,24.60
2015,06,26,14,46,24.50
2015,06,26,14,47,24.50
2015,06,26,14,48,24.50
2015,06,26,14,49,24.50
2015,06,26,14,50,24.50
2015,06,26,14,51,24.50
2015,06,26,14,52,24.50
2015,06,26,14,53,24.50
2015,06,26,14,54,24.50
2015,06,26,14,55,24.50
2015,06,26,14,56,24.50
2015,06,26,14,57,24.50
2015,06,26,14,58,24.60
2015,06,26,14,59,24.60
2015,06,26,15,00,24.70
2015,06,26,15,01,24.70
2015,06,26,15,02,24.60
2015,06,26,15,03,24.50
2015,06,26,15,04,24.40
2015,06,26,15,05,24.40
2015,06,26,15,06,24.40
2015,06,26,15,07,24.30
2015,06,26,15,08,24.30
2015,06,26,15,09,24.30
2015,06,26,15,10,24.30
2015,06,26,15,11,24.40
2015,06,26,15,12,24.40
2015,06,26,15,13,24.40
2015,06,26,15,14,24.40
2015,06,26,15,15,24.30
2015,06,26,15,16,24.20
2015,06,26,15,17,24.10
2015,06,26,15,18,24.10
2015,06,26,15,19,24.00
2015,06,26,15,20,24.00
2015,06,26,15,21,24.00
2015,06,26,15,22,24.10
2015,06,26,15,23,24.10
2015,06,26,15,24,24.10
2015,06,26,15,25,24.20
2015,06,26,15,26,24.20
2015,06,26,15,27,24.30
2015,06,26,15,28,24.20
2015,06,26,15,29,24.20
2015,06,26,15,30,24.20
2015,06,26,15,31,24.10
2015,06,26,15,32,24.10
2015,06,26,15,33,24.00
2015,06,26,15,34,24.00
2015,06,26,15,35,24.00
2015,06,26,15,36,24.00
2015,06,26,15,37,23.90
2015,06,26,15,38,23.90
2015,06,26,15,39,23.90
2015,06,26,15,40,23.90
2015,06,26,15,41,24.00
2015,06,26,15,42,24.10
2015,06,26,15,43,24.10
2015,06,26,15,44,24.10
2015,06,26,15,45,24.10
2015,06,26,15,46,24.10
2015,06,26,15,47,24.10
2015,06,26,15,48,24.00
2015,06,26,15,49,24.10
2015,06,26,15,50,24.10
2015,06,26,15,51,24.10
2015,06,26,15,52,24.20
2015,06,26,15,53,24.20
2015,06,26,15,54,24.20
2015,06,26,15,55,24.20
2015,06,26,15,56,24.20
2015,06,26,15,57,24.10
2015,06,26,15,58,24.10
2015,06,26,15,59,24.10
2015,06,26,16,00,24.10
2015,06,26,16,01,24.10
2015,06,26,16,02,24.10
2015,06,26,16,03,24.10
2015,06,26,16,04,24.10
2015,06,26,16,05,24.10
2015,06,26,16,06,24.10
2015,06,26,16,07,24.10
2015,06,26,16,08,24.10
2015,06,26,16,09,24.10
2015,06,26,16,10,24.00
2015,06,26,16,11,24.00
2015,06,26,16,12,24.00
2015,06,26,16,13,24.00
2015,06,26,16,14,24.00
2015,06,26,16,15,24.00
2015,06,26,16,16,24.10
2015,06,26,16,17,24.10
2015,06,26,16,18,24.10
2015,06,26,16,19,24.20
2015,06,26,16,20,24.20
2015,06,26,16,21,24.20
2015,06,26,16,22,24.20
2015,06,26,16,23,24.20
2015,06,26,16,24,24.30
2015,06,26,16,25,24.30
2015,06,26,16,26,24.30
2015,06,26,16,27,24.30
2015,06,26,16,28,24.30
2015,06,26,16,29,24.30
2015,06,26,16,30,24.30
2015,06,26,16,31,24.30
2015,06,26,16,32,24.30
2015,06,26,16,33,24.30
2015,06,26,16,34,24.30
2015,06,26,16,35,24.30
2015,06,26,16,36,24.30
2015,06,26,16,37,24.20
2015,06,26,16,38,24.20
2015,06,26,16,39,24.20
2015,06,26,16,40,24.30
2015,06,26,16,41,24.30
2015,06,26,16,42,24.40
2015,06,26,16,43,24.40
2015,06,26,16,44,24.40
2015,06,26,16,45,24.40
2015,06,26,16,46,24.40
2015,06,26,16,47,24.30
2015,06,26,16,48,24.30
2015,06,26,16,49,24.30
2015,06,26,16,50,24.30
2015,06,26,16,51,24.30
2015,06,26,16,52,24.30
2015,06,26,16,53,24.30
2015,06,26,16,54,24.40
2015,06,26,16,55,24.40
2015,06,26,16,56,24.40
2015,06,26,16,57,24.40
2015,06,26,16,58,24.40
2015,06,26,16,59,24.50
2015,06,26,17,00,24.50
2015,06,26,17,01,24.60
2015,06,26,17,02,24.70
2015,06,26,17,03,24.70
2015,06,26,17,04,24.80
2015,06,26,17,05,24.70
2015,06,26,17,06,24.70
2015,06,26,17,07,24.60
2015,06,26,17,08,24.60
2015,06,26,17,09,24.60
2015,06,26,17,10,24.60
2015,06,26,17,11,24.60
2015,06,26,17,12,24.60
2015,06,26,17,13,24.60
2015,06,26,17,14,24.60
2015,06,26,17,15,24.60
2015,06,26,17,16,24.50
2015,06,26,17,17,24.40
2015,06,26,17,18,24.40
2015,06,26,17,19,24.30